Simultaneous Nadir Overpasses (SNOs) Predictions

Prediction of SNOs between GOES-17 and AQUA Satellite Orbit:

Table of predicted SNOs for the next 14.0 days since TLE Epoch: 5/7/2022
Index Date Time (GOES-17) GOES-17 Lat,Lon AQUA Lat,Lon Distance(km) Time Diff (sec)
1 05/07/2022 10:58:10 -0.02,-137.19 0.52,-139.66 281.10 80
2 05/09/2022 10:43:03 -0.02,-137.19 -0.15,-136.64 63.44 80
3 05/11/2022 10:30:35 -0.01,-137.19 -0.78,-133.60 407.67 80
4 05/11/2022 22:54:34 0.01,-137.18 -0.32,-138.78 181.36 80
5 05/13/2022 22:39:26 0.01,-137.17 0.34,-135.75 162.35 80
6 05/14/2022 11:03:17 -0.01,-137.17 0.76,-140.88 421.14 80
7 05/16/2022 10:50:48 -0.01,-137.15 0.14,-137.84 78.53 80
8 05/18/2022 10:35:39 -0.01,-137.12 -0.50,-134.80 263.19 80
9 05/18/2022 22:59:38 0.01,-137.10 -0.62,-139.97 326.50 80
10 05/20/2022 22:44:29 0.01,-137.06 0.06,-136.94 14.86 80
